SL-14 DEB

Satellite information

Favourite Embed

Satellite Type and Status

DEBRISIN ORBIT

Key statistics

Satellite SL-14 DEB at a glance.

Uptime

14187

Days in orbit

Revolutions

≈ 14.1

Per day

Orbit

LEO

Low Earth Orbit

Inclination

82.5

Latest

Satellite identification and parameters

Extended collection of information and parameters for SL-14 DEB.

Object identification

Identified? True

Debris? True

Object name: SL-14 DEB

International designator: 1986-101G

Object number (NORAD): 17272

Object ID (CCSDS): 17272

Country: COMMONWEALTH OF INDEPENDENT STATES (CIS)

Current information (Y/N): Y

RCS size: SMALL

Orbital parameters

Period: 102.117 minutes

Inclination: 82.4833 deg

SMA: 7236.986 km

Apoapsis: 872.01 km

Periapsis: 845.691 km

RAAN: 112.1227 deg

Eccentricy: 0.00181835

Argument of periapsis: 228.3836 deg

Mean anomaly: 131.5782 deg

Mean motion: 14.10152835 rev/day

Mean motion (dot): 0.00001727 rev/day2

B* drag term: 0.00096656518 1/REarth

Two-line elements (TLE)

Creation date: Oct. 21, 2025, 3:26 a.m.

Reference frame: TEME

Reference center: EARTH

Epoch: Oct. 20, 2025, 9:50 p.m. UTC

TLE line 0: 0 SL-14 DEB

TLE line 1: 1 17272U 86101G 25293.91028351 .00001727 00000-0 96657-3 0 9998

TLE line 2: 2 17272 82.4833 112.1227 0018183 228.3836 131.5782 14.10152835984062

Live tracking on map

Real-time ground track for satellite SL-14 DEB.

In-orbit conjunctions

A list of the most updated potential collisions computed for object SL-14 DEB.

Target Orbit TCA Probability of collision Miss distance Type
METEOR 1-17 LEO 2025-10-13 02:58:36 0.0001144363 65.0 (m) PAYLOAD
CZ-6A DEB SSO 2025-09-25 21:57:12 0.0001117191 97.0 (m) DEBRIS
CZ-6A DEB SSO 2024-09-15 01:42:38 0.0003221672 55.0 (m) DEBRIS

Associated space launch

Ionospheric research satellite

SL-14 DEB was lifted into orbit during the mission ‘Tsiklon-3 | Ionozond-E’, on board a Tsiklon-3 space rocket.

The launch took place on Dec. 18, 1986, 8 a.m. from 32/2.

For more information about the launch, click the button.

Launch to space Tsiklon-3 | Ionozond-E
Tsiklon-3 | Ionozond-E

Agency: N/A

Status: Launch Successful

Launch date: Dec. 18, 1986, 8 a.m. UTC

Rocket: Tsiklon-3

Launch pad: 32/2

Location: Plesetsk Cosmodrome, Russian Federation

...

Latest news about this satellite

There are no fresh news available about this satellite. Check back as we update our databases every day.


Newsletter sign-up

Weekly statistics, charts and insights to help you stay on top of the space industry.